Location: Azul
(36.7830°S, 59.8500°W)
Time: 09:55:56
(UTC-03:00)

ISS - Pass Details

Date: 07 December 2017
Orbit: 402 x 406 km, 51.6° (Epoch: 16 December)

Event Time Altitude Azimuth Distance (km) Brightness Sun altitude
Exits shadow 04:17:22 14° 262° (W) 1,279 -1.7 -13.2°
Maximum altitude 04:19:33 25° 211° (SSW) 885 -2.0 -12.9°
Drops below altitude 10° 04:22:22 10° 154° (SSE) 1,487 0.2 -12.5°
Sets 04:24:43 0° 139° (SE) 2,354 2.0 -12.1°
